METEOR 2-18

导读 | 星芒AI

METEOR 2-18 是俄罗斯一颗气象卫星,属于 METEOR 系列,主要用于地球观测和气象监测。该卫星搭载多种遥感仪器,能够收集气象、水文和环境数据,支持天气预报和气候研究。它运行在近地轨道,提供高分辨率图像和实时数据传输。METEOR 2-18 在提升俄罗斯气象服务能力方面发挥了重要作用,并为全球气象合作提供了数据支持。

基本信息
目录编号:
19851
目录名称:
METEOR 2-18
国际标识:
1989-018A
轨道中心:
EARTH
卫星名称:
METEOR 2-18
卫星全名:
--
卫星状态:
在轨 (已飞行13437 天)
发射日期:
1989-02-28 UTC
国别 :
俄罗斯(独联体) (CIS)
星等 :
--
轨道信息
数据来源 国际轨道数据
星历时间: 2025-12-13T08:47:37+0800
9小时前
查看轨道信息
半长轴: 7320.795km
偏心率: 0.0011148
轨道倾角: 82.520°
近地点辐角 298.063°
升交点赤经 317.728°
平近点角 132.281°
近地点: 934.498km
远地点: 950.822km
周期: 103.896分钟
每日圈数: 13.86007
详细信息
使用方式:
暂无
2D轨道图
3D轨道图
轨道高度分析图
轨道倾角分析图
轨道综合分析图
查看轨道综合分析图